SB KEPS @ AMSAT $ORB08031.O Orbital Elements 08031.OSCAR
HR AMSAT ORBITAL ELEMENTS FOR OSCAR SATELLITES FROM WA5QGD FORT WORTH,TX January 31, 2008 Send Subscribe/unsubscribe to KEPS at http://www.amsat.org/mailman/listinfo/keps BID: ORB08031.O TO ALL RADIO AMATEURS BT
Satellite: AO-07 Catalog number: 07530 Epoch time: 08030.66978313 Element set: 0094 Inclination: 101.4858 deg RA of node: 066.7114 deg Eccentricity: 0.0012060 Arg of perigee: 172.0914 deg Mean anomaly: 188.0348 deg Mean motion: 12.53573411 rev/day Decay rate: -2.7e-07 rev/day^2 Epoch rev: 51962 Checksum: 282
Satellite: AO-10 Catalog number: 14129 Epoch time: 08028.89929780 Element set: 0465 Inclination: 025.9366 deg RA of node: 233.2570 deg Eccentricity: 0.6035146 Arg of perigee: 094.0530 deg Mean anomaly: 332.5554 deg Mean motion: 02.05869724 rev/day Decay rate: -7.2e-07 rev/day^2 Epoch rev: 18521 Checksum: 310
Satellite: UO-11 Catalog number: 14781 Epoch time: 08030.48619328 Element set: 0584 Inclination: 098.1714 deg RA of node: 062.3262 deg Eccentricity: 0.0009451 Arg of perigee: 154.3290 deg Mean anomaly: 205.8381 deg Mean motion: 14.79613590 rev/day Decay rate: -6.0e-08 rev/day^2 Epoch rev: 28334 Checksum: 297
Satellite: RS-15 Catalog number: 23439 Epoch time: 08030.92065965 Element set: 0096 Inclination: 064.8189 deg RA of node: 358.6366 deg Eccentricity: 0.0151230 Arg of perigee: 149.0818 deg Mean anomaly: 211.9115 deg Mean motion: 11.27551677 rev/day Decay rate: -3.9e-07 rev/day^2 Epoch rev: 53937 Checksum: 324
Satellite: FO-29 Catalog number: 24278 Epoch time: 08030.83006679 Element set: 0710 Inclination: 098.5813 deg RA of node: 325.2378 deg Eccentricity: 0.0350161 Arg of perigee: 213.5881 deg Mean anomaly: 144.2608 deg Mean motion: 13.52935262 rev/day Decay rate: -2.2e-07 rev/day^2 Epoch rev: 56568 Checksum: 309
Satellite: SO-33 Catalog number: 25509 Epoch time: 08030.37011656 Element set: 0123 Inclination: 031.4333 deg RA of node: 021.2561 deg Eccentricity: 0.0355470 Arg of perigee: 253.5115 deg Mean anomaly: 102.6170 deg Mean motion: 14.28191677 rev/day Decay rate: -5.3e-07 rev/day^2 Epoch rev: 48375 Checksum: 263
Satellite: AO-40 Catalog number: 26609 Epoch time: 08030.26782122 Element set: 1 Inclination: 007.3250 deg RA of node: 100.0120 deg Eccentricity: 0.7926963 Arg of perigee: 046.7796 deg Mean anomaly: 356.2403 deg Mean motion: 01.25583275 rev/day Decay rate: -3.88e-06 rev/day^2 Epoch rev: 3329 Checksum: 279
Satellite: VO-52 Catalog number: 28650 Epoch time: 08031.21335527 Element set: 844 Inclination: 097.8053 deg RA of node: 101.5115 deg Eccentricity: 0.0026240 Arg of perigee: 229.6077 deg Mean anomaly: 130.2886 deg Mean motion: 14.81413679 rev/day Decay rate: -7.0e-07 rev/day^2 Epoch rev: 14817 Checksum: 289
Satellite: PO-63 Catalog number: 29712 Epoch time: 08031.78435619 Element set: 147 Inclination: 097.8933 deg RA of node: 092.4549 deg Eccentricity: 0.0015269 Arg of perigee: 106.6274 deg Mean anomaly: 253.6605 deg Mean motion: 14.80003768 rev/day Decay rate: 4.41e-06 rev/day^2 Epoch rev: 5714 Checksum: 318
/EX SB KEPS @ AMSAT $ORB08031.D Orbital Elements 08031.MICROS
HR AMSAT ORBITAL ELEMENTS FOR THE MICROSATS FROM WA5QGD FORT WORTH,TX January 31, 2008 Send Subscribe/unsubscribe to KEPS at http://www.amsat.org/mailman/listinfo/keps BID: ORB08031.D TO ALL RADIO AMATEURS BT
Satellite: AO-16 Catalog number: 20439 Epoch time: 08029.51439287 Element set: 0240 Inclination: 098.2157 deg RA of node: 016.8194 deg Eccentricity: 0.0010057 Arg of perigee: 231.1126 deg Mean anomaly: 128.9163 deg Mean motion: 14.31782563 rev/day Decay rate: -2.1e-07 rev/day^2 Epoch rev: 94093 Checksum: 289
Satellite: LO-19 Catalog number: 20442 Epoch time: 08029.51503972 Element set: 0163 Inclination: 098.1917 deg RA of node: 025.7442 deg Eccentricity: 0.0011204 Arg of perigee: 228.2281 deg Mean anomaly: 131.7954 deg Mean motion: 14.32021827 rev/day Decay rate: -1.9e-07 rev/day^2 Epoch rev: 94108 Checksum: 279
Satellite: AO-27 Catalog number: 22825 Epoch time: 08030.51553216 Element set: 0887 Inclination: 098.3649 deg RA of node: 355.8764 deg Eccentricity: 0.0007941 Arg of perigee: 316.5550 deg Mean anomaly: 043.5001 deg Mean motion: 14.29228223 rev/day Decay rate: -1.90e-06 rev/day^2 Epoch rev: 74796 Checksum: 315
Satellite: IO-26 Catalog number: 22826 Epoch time: 08031.78355567 Element set: 589 Inclination: 098.3588 deg RA of node: 358.0669 deg Eccentricity: 0.0008339 Arg of perigee: 308.3786 deg Mean anomaly: 051.6651 deg Mean motion: 14.29476925 rev/day Decay rate: 9.0e-08 rev/day^2 Epoch rev: 74823 Checksum: 362
Satellite: PO-28 Catalog number: 22829 Epoch time: 08029.52867740 Element set: 0862 Inclination: 098.3474 deg RA of node: 357.0320 deg Eccentricity: 0.0008851 Arg of perigee: 283.9547 deg Mean anomaly: 076.0643 deg Mean motion: 14.30178316 rev/day Decay rate: -1.02e-06 rev/day^2 Epoch rev: 74816 Checksum: 322
Satellite: GO-32 Catalog number: 25397 Epoch time: 08031.58964494 Element set: 514 Inclination: 098.3849 deg RA of node: 073.4241 deg Eccentricity: 0.0000395 Arg of perigee: 302.9566 deg Mean anomaly: 057.1580 deg Mean motion: 14.23137275 rev/day Decay rate: -8.2e-07 rev/day^2 Epoch rev: 49664 Checksum: 324
Satellite: MO-46 Catalog number: 26548 Epoch time: 08030.47744831 Element set: 0011 Inclination: 064.5558 deg RA of node: 199.4688 deg Eccentricity: 0.0013345 Arg of perigee: 342.9389 deg Mean anomaly: 017.1271 deg Mean motion: 14.83222134 rev/day Decay rate: -6.0e-07 rev/day^2 Epoch rev: 39724 Checksum: 310
Satellite: NO-44 Catalog number: 26931 Epoch time: 08030.75599132 Element set: 0795 Inclination: 067.0531 deg RA of node: 281.2709 deg Eccentricity: 0.0004695 Arg of perigee: 268.5492 deg Mean anomaly: 091.5054 deg Mean motion: 14.29511328 rev/day Decay rate: 1.18e-06 rev/day^2 Epoch rev: 33062 Checksum: 307
Satellite: SO-50 Catalog number: 27607 Epoch time: 08030.48624407 Element set: 517 Inclination: 064.5588 deg RA of node: 114.8580 deg Eccentricity: 0.0078711 Arg of perigee: 307.0639 deg Mean anomaly: 052.3254 deg Mean motion: 14.71321969 rev/day Decay rate: -1.04e-06 rev/day^2 Epoch rev: 27456 Checksum: 305
Satellite: CO-55 Catalog number: 27844 Epoch time: 08030.75236195 Element set: 224 Inclination: 098.7174 deg RA of node: 040.9272 deg Eccentricity: 0.0010099 Arg of perigee: 151.5335 deg Mean anomaly: 208.6379 deg Mean motion: 14.20557591 rev/day Decay rate: 4.2e-07 rev/day^2 Epoch rev: 23778 Checksum: 312
Satellite: CO-57 Catalog number: 27848 Epoch time: 08030.52065068 Element set: 0180 Inclination: 098.7175 deg RA of node: 039.8242 deg Eccentricity: 0.0009882 Arg of perigee: 156.0960 deg Mean anomaly: 204.0671 deg Mean motion: 14.20369701 rev/day Decay rate: -7.0e-08 rev/day^2 Epoch rev: 23772 Checksum: 306
Satellite: AO-51 Catalog number: 28375 Epoch time: 08029.51152404 Element set: 0019 Inclination: 098.0863 deg RA of node: 061.8347 deg Eccentricity: 0.0083037 Arg of perigee: 216.3993 deg Mean anomaly: 143.1534 deg Mean motion: 14.40595198 rev/day Decay rate: 6.0e-08 rev/day^2 Epoch rev: 18829 Checksum: 312
Satellite: CO-56 Catalog number: 28941 Epoch time: 08031.72816562 Element set: 807 Inclination: 098.1045 deg RA of node: 124.5453 deg Eccentricity: 0.0192398 Arg of perigee: 177.8667 deg Mean anomaly: 182.3416 deg Mean motion: 15.49293840 rev/day Decay rate: 2.2861e-04 rev/day^2 Epoch rev: 10870 Checksum: 337
Satellite: HO-59 Catalog number: 29484 Epoch time: 08031.69365263 Element set: 89 Inclination: 098.2513 deg RA of node: 124.3047 deg Eccentricity: 0.0135595 Arg of perigee: 154.4812 deg Mean anomaly: 206.3217 deg Mean motion: 15.72772878 rev/day Decay rate: 7.3247e-04 rev/day^2 Epoch rev: 7671 Checksum: 339
Satellite: NO-61 Catalog number: 29664 Epoch time: 07359.16654419 Element set: 738 Inclination: 051.6179 deg RA of node: 150.0690 deg Eccentricity: 0.0003189 Arg of perigee: 248.8461 deg Mean anomaly: 111.8136 deg Mean motion: 16.51627846 rev/day Decay rate: 1.4620719e-01 rev/day^2 Epoch rev: 5877 Checksum: 345
Satellite: CP4 Catalog number: 31122 Epoch time: 08030.67104782 Element set: 0251 Inclination: 098.0573 deg RA of node: 101.3013 deg Eccentricity: 0.0086327 Arg of perigee: 039.7274 deg Mean anomaly: 321.0147 deg Mean motion: 14.55082084 rev/day Decay rate: 5.51e-06 rev/day^2 Epoch rev: 04193 Checksum: 258
Satellite: CP3 Catalog number: 31128 Epoch time: 08030.67936795 Element set: 0246 Inclination: 098.0569 deg RA of node: 099.8677 deg Eccentricity: 0.0103374 Arg of perigee: 043.6511 deg Mean anomaly: 317.2844 deg Mean motion: 14.51908909 rev/day Decay rate: -4.7e-07 rev/day^2 Epoch rev: 04183 Checksum: 327
Satellite: LIBERT Catalog number: 31129 Epoch time: 08031.69555126 Element set: 715 Inclination: 098.0587 deg RA of node: 100.8720 deg Eccentricity: 0.0103077 Arg of perigee: 040.6082 deg Mean anomaly: 320.2697 deg Mean motion: 14.51999856 rev/day Decay rate: 3.39e-06 rev/day^2 Epoch rev: 4196 Checksum: 303
/EX SB KEPS @ AMSAT $ORB08031.W Orbital Elements 08031.WEATHER
HR AMSAT ORBITAL ELEMENTS FOR WEATHER SATELLITES FROM WA5QGD FORT WORTH,TX January 31, 2008 Send Subscribe/unsubscribe to KEPS at http://www.amsat.org/mailman/listinfo/keps BID: ORB08031.W TO ALL RADIO AMATEURS BT
Satellite: NOAA-10 Catalog number: 16969 Epoch time: 08030.56814286 Element set: 0987 Inclination: 098.7344 deg RA of node: 052.7386 deg Eccentricity: 0.0011845 Arg of perigee: 223.0965 deg Mean anomaly: 136.9303 deg Mean motion: 14.27349028 rev/day Decay rate: 9.0e-08 rev/day^2 Epoch rev: 11166 Checksum: 320
Satellite: NOAA-11 Catalog number: 19531 Epoch time: 08031.26856432 Element set: 23 Inclination: 098.8011 deg RA of node: 122.5156 deg Eccentricity: 0.0012302 Arg of perigee: 100.4348 deg Mean anomaly: 259.8204 deg Mean motion: 14.14863566 rev/day Decay rate: -1.82e-06 rev/day^2 Epoch rev: 99840 Checksum: 277
